Temperature
7 7 7 7 7 7 7 7 7 7 7 7 7 7 7 7 7 6 6 6 6 6 6 6 6 6 6 6 6 5 5 5 5 5 5 5 5 5 5 5 5 5 5
7 7 7 7 7 7 7 7 7 7 7 7 7 6 6 6 6 6 6 6 6 5 5 5 5 5 5 5 5 5 5 5 5 5 5 5 5 5 5 5 5 5 5
6 6 6 6 6 6 6 6 6 6 6 6 6 6 6 6 6 6 6 5 5 5 5 5 5 5 5 5 5 4 4 4 4 4 4 4 4 4 4 4 4 4 4
5 5 6 6 6 6 6 6 6 6 6 5 6 6 6 6 5 5 5 5 5 5 5 5 5 4 4 4 4 4 4 4 4 4 3 3 4 4 4 4 4 4 4
4 5 5 5 5 5 5 5 5 5 5 5 5 5 5 5 5 5 5 5 5 4 4 4 4 4 4 4 4 4 4 3 3 3 3 3 3 3 3 3 3 3 3
4 4 4 4 4 4 4 4 5 5 5 5 5 4 4 4 4 4 4 4 4 4 4 4 4 4 4 4 3 3 3 3 3 3 3 3 3 3 3 3 3 3 3
3 3 3 3 3 3 4 4 4 4 4 4 4 4 4 4 4 4 4 4 4 4 4 4 4 3 3 3 3 3 3 3 2 2 3 3 3 3 2 2 2 2 2
3 3 3 3 3 3 3 3 3 3 3 3 3 3 3 3 3 3 3 3 3 3 3 3 3 3 3 3 3 2 2 2 2 2 2 2 2 2 2 2 2 2 2
2 2 2 2 2 2 2 2 3 3 3 3 3 3 3 3 3 3 3 3 3 3 3 3 3 3 3 2 2 2 2 2 2 2 2 2 2 1 1 1 1 1 1
1 1 1 2 2 2 2 2 2 2 2 2 2 2 2 2 2 2 2 2 2 2 2 2 2 2 2 2 2 2 2 2 2 1 1 1 1 1 1 0 0 0 0
1 1 1 1 1 1 1 1 1 1 2 2 2 2 2 2 2 2 2 2 2 2 2 2 2 1 1 1 1 1 1 1 1 1 1 1 1 0 0 -0 -0 -0 -0
0 0 0 0 1 1 1 1 1 1 1 1 1 1 1 1 1 1 1 1 1 1 1 1 1 1 1 1 1 1 1 0 0 0 0 0 0 -0 -0 -0 -1 -1 -1
-1 -0 -0 -0 -0 -0 0 0 0 0 0 0 0 0 0 0 0 0 0 0 0 0 0 0 0 0 0 0 0 0 -0 -0 -0 -0 -0 -0 -0 -1 -1 -1 -1 -1 -1
-1 -1 -1 -1 -1 -1 -1 -0 -0 -0 -0 -0 -0 -0 -0 -0 -0 -0 -0 -0 -0 -0 -0 -1 -1 -1 -1 -1 -1 -1 -1 -1 -1 -1 -1 -1 -1 -1 -1 -2 -2 -2 -2
-2 -2 -2 -2 -1 -1 -1 -1 -1 -1 -1 -1 -1 -1 -1 -1 -1 -1 -1 -1 -1 -1 -1 -1 -1 -2 -2 -2 -2 -2 -1 -1 -2 -1 -2 -2 -2 -2 -2 -2 -2 -2 -3
-3 -3 -3 -2 -2 -2 -2 -2 -2 -2 -2 -1 -1 -1 -1 -1 -1 -1 -1 -1 -1 -1 -2 -2 -2 -2 -2 -2 -2 -2 -2 -2 -2 -2 -2 -2 -3 -3 -3 -3 -3 -3 -3
-4 -4 -3 -3 -3 -3 -2 -2 -2 -2 -2 -2 -2 -2 -2 -2 -2 -2 -2 -2 -2 -2 -2 -2 -2 -2 -2 -2 -2 -2 -3 -3 -3 -3 -3 -3 -3 -3 -4 -4 -4 -4 -4
-4 -4 -4 -4 -3 -3 -3 -3 -3 -3 -3 -3 -3 -2 -2 -3 -3 -3 -3 -3 -3 -3 -3 -3 -3 -3 -3 -3 -3 -3 -3 -3 -3 -4 -4 -4 -4 -4 -4 -4 -4 -5 -5
-5 -5 -4 -4 -4 -4 -4 -4 -4 -4 -4 -3 -3 -3 -3 -3 -3 -3 -3 -3 -3 -3 -3 -3 -4 -4 -3 -3 -3 -4 -4 -4 -4 -4 -4 -4 -5 -5 -5 -5 -5 -5 -5
-6 -5 -5 -5 -5 -5 -4 -4 -4 -4 -4 -4 -4 -4 -4 -4 -4 -4 -4 -4 -4 -4 -4 -4 -4 -4 -4 -4 -4 -4 -4 -4 -5 -5 -5 -5 -5 -5 -5 -5 -5 -6 -6
-6 -6 -6 -6 -5 -5 -5 -5 -5 -5 -5 -5 -5 -5 -5 -5 -5 -5 -5 -4 -4 -4 -4 -4 -4 -4 -5 -5 -5 -5 -5 -5 -5 -5 -5 -6 -6 -6 -6 -6 -6 -6 -6
-7 -6 -6 -6 -6 -6 -6 -5 -5 -5 -5 -5 -5 -5 -5 -5 -5 -5 -5 -5 -5 -5 -5 -5 -5 -5 -5 -5 -5 -5 -5 -6 -6 -6 -6 -6 -6 -6 -6 -6 -6 -6 -7
-7 -7 -7 -7 -6 -6 -6 -6 -6 -6 -6 -6 -6 -6 -6 -6 -6 -6 -5 -5 -5 -5 -5 -5 -5 -5 -5 -5 -6 -6 -6 -6 -6 -6 -6 -6 -6 -6 -6 -6 -7 -7 -7
-7 -7 -7 -7 -7 -7 -7 -6 -6 -6 -6 -6 -6 -6 -6 -6 -6 -6 -6 -6 -6 -6 -6 -6 -6 -6 -6 -6 -6 -6 -6 -6 -6 -6 -6 -7 -7 -7 -7 -7 -7 -7 -7
-8 -8 -8 -8 -8 -8 -7 -7 -7 -7 -7 -7 -7 -7 -7 -7 -7 -7 -6 -6 -6 -6 -6 -6 -6 -6 -6 -6 -6 -6 -6 -6 -7 -7 -7 -7 -7 -7 -7 -7 -7 -7 -8
-9 -9 -8 -8 -8 -8 -8 -8 -8 -8 -7 -7 -7 -7 -7 -7 -7 -7 -7 -7 -7 -7 -7 -7 -7 -7 -7 -7 -7 -7 -7 -7 -7 -7 -7 -7 -7 -7 -7 -7 -8 -8 -8
Wind_Speed
4 4 4 4 4 5 4 5 5 5 6 6 7 7 7 7 7 7 7 7 7 6 5 6 5 4 4 3 3 3 2 2 2 2 1 1 2 2 3 6 7 7 8
4 4 3 3 3 4 4 4 4 5 5 5 6 6 6 7 7 8 8 8 7 7 7 6 6 5 5 4 4 4 3 3 3 2 2 1 2 3 3 4 5 6 7
3 4 3 3 3 3 4 4 4 4 4 4 5 6 6 6 7 7 7 7 7 7 7 7 7 7 6 5 5 5 4 3 2 2 2 2 2 2 2 2 3 3 5
2 3 3 3 3 3 3 4 4 4 5 5 5 5 6 6 6 6 6 6 6 6 6 7 7 8 7 7 6 5 4 4 3 3 2 2 1 1 1 2 2 2 3
2 2 2 2 2 2 3 3 3 4 5 5 5 5 5 5 5 6 6 6 6 5 5 6 6 8 9 8 6 6 5 4 3 3 2 2 2 1 3 2 3 2 3
1 1 1 2 2 2 2 3 3 3 4 4 5 5 5 4 6 7 6 5 6 6 6 5 5 6 7 8 8 8 8 7 6 5 4 4 5 4 3 3 2 2 3
1 1 1 2 2 2 2 2 3 3 3 4 4 4 4 4 5 6 6 5 5 6 6 5 5 5 7 5 6 7 7 8 8 7 6 6 6 5 5 4 4 3 4
0 0 1 1 2 2 2 2 2 2 2 2 3 3 4 4 5 5 6 5 5 5 6 6 6 6 6 6 5 5 5 6 7 6 6 6 5 4 5 5 5 3 2
2 1 0 0 1 1 2 2 1 2 2 2 2 2 3 4 5 5 5 4 4 5 5 6 6 6 8 7 6 5 5 4 5 6 6 5 5 6 5 2 2 2 3
2 2 1 0 1 1 1 1 1 2 2 2 2 2 3 3 5 5 5 3 3 3 3 4 6 6 7 8 7 6 6 4 3 2 3 3 4 5 6 5 4 3 2
3 2 1 0 0 1 1 1 1 1 2 2 2 1 2 3 4 5 5 4 4 3 3 3 3 6 6 7 6 5 6 4 3 3 2 2 1 1 2 3 4 4 3
3 2 2 1 0 0 1 1 1 2 2 1 1 1 1 2 3 4 5 5 4 4 3 3 3 5 5 6 5 4 4 3 2 2 2 2 2 2 1 2 2 3 3
3 3 2 1 1 0 1 2 1 2 2 2 2 1 1 1 1 2 4 4 4 3 2 3 4 5 5 4 4 4 3 3 3 3 3 2 2 1 1 0 0 1 2
3 3 3 2 1 0 1 1 1 2 2 2 2 2 1 1 1 1 2 3 3 3 2 2 2 3 3 3 3 2 2 3 3 3 2 1 1 1 1 1 1 1 1
4 3 3 2 2 1 1 0 0 1 2 2 2 2 1 2 2 2 2 2 3 3 2 1 1 2 2 2 1 2 2 2 2 1 2 2 1 1 1 1 1 1 1
4 4 3 2 2 2 1 2 3 1 1 0 1 2 1 2 2 3 3 4 4 5 3 2 3 3 3 3 3 2 2 2 2 2 2 2 2 2 2 1 1 1 2
4 4 3 3 2 2 2 1 1 3 3 1 1 2 1 1 2 2 3 3 5 5 3 3 3 3 3 3 3 2 2 2 2 2 2 2 2 2 2 2 2 2 2
5 4 4 3 2 2 2 1 1 0 1 2 2 1 1 1 1 1 2 2 2 2 2 3 3 3 3 3 3 2 2 2 2 2 2 2 2 2 2 2 2 3 3
5 4 3 3 2 2 2 2 1 1 1 1 1 1 2 1 1 1 0 1 2 2 2 2 2 2 2 3 3 3 3 3 2 2 2 2 2 2 2 3 3 4 3
4 6 5 3 2 2 2 2 2 2 2 1 1 1 1 1 1 1 1 1 1 1 2 2 2 2 2 2 2 3 3 3 3 3 3 2 2 3 3 3 3 3 3
4 5 7 4 3 3 2 2 2 2 2 2 2 2 3 1 1 1 1 1 1 1 1 1 2 2 2 2 2 3 3 3 3 3 3 2 3 3 3 3 3 3 3
4 4 4 4 3 3 3 2 2 2 2 2 2 3 3 2 1 1 1 1 1 1 1 1 1 2 2 2 3 3 3 3 3 3 3 3 2 3 2 3 3 3 3
5 5 4 4 3 4 4 3 2 2 2 2 2 2 2 2 2 2 2 1 1 1 0 1 1 1 1 1 2 3 3 4 4 3 3 3 3 3 3 3 3 3 3
5 5 4 4 4 3 3 3 3 3 3 2 2 2 2 2 2 2 2 1 1 1 1 0 1 2 2 1 2 3 4 4 4 4 4 3 3 3 3 3 3 3 3
5 5 5 4 4 3 3 3 3 3 3 3 3 2 2 2 2 2 2 2 1 1 1 1 1 1 2 2 3 3 4 4 4 4 4 3 4 4 3 3 3 3 3
5 5 5 4 4 3 3 3 3 3 3 3 3 2 3 3 3 2 2 2 2 2 2 2 2 2 2 3 3 4 4 4 4 4 4 3 4 4 3 3 3 3 3
Wind_Direction
163 165 167 174 173 168 171 176 176 177 180 183 186 186 186 187 187 188 189 190 193 193 194 193 198 193 189 190 186 192 206 191 217 257 250 220 203 223 231 228 231 231 235
158 159 166 162 161 162 170 175 172 178 182 182 184 188 191 192 192 193 194 194 195 197 197 191 197 194 195 192 190 198 208 206 200 228 250 238 238 229 215 219 229 232 238
147 155 162 162 167 172 177 174 174 177 180 180 186 191 193 194 195 195 193 194 197 199 198 196 197 193 200 198 194 200 204 208 203 203 229 250 258 240 212 228 238 239 243
138 147 159 171 176 181 180 177 179 178 182 187 192 192 192 191 193 192 192 193 197 200 201 200 199 199 201 197 200 200 195 200 201 194 215 234 256 259 197 221 254 252 258
121 139 162 167 162 167 174 180 181 185 190 187 187 189 188 190 194 188 189 192 193 199 204 203 204 203 206 202 203 197 192 200 203 205 212 225 233 218 222 226 243 253 259
119 159 174 166 156 168 179 181 181 187 186 179 184 185 187 197 194 195 196 194 194 199 205 203 201 201 205 207 208 205 200 203 206 208 215 221 226 226 219 224 229 242 261
116 146 175 171 173 181 179 172 182 187 184 187 187 182 184 185 186 195 203 198 198 203 202 197 207 208 202 200 208 211 213 218 214 211 215 220 220 216 209 220 225 238 245
73 168 161 159 177 180 173 184 193 182 179 196 193 187 181 188 193 202 207 202 205 210 205 200 202 201 202 198 200 208 218 224 223 221 218 221 222 211 207 216 226 244 281
18 2 331 174 169 168 179 195 191 166 174 184 176 183 191 197 195 200 201 199 207 217 212 203 198 200 204 196 194 205 219 230 233 223 222 225 227 220 210 184 194 218 263
360 352 343 309 175 184 203 205 198 179 186 180 181 191 198 200 200 196 197 199 206 216 216 207 203 205 205 198 199 203 214 221 205 212 222 226 224 218 210 200 196 211 243
1 359 355 8 147 176 189 186 185 184 167 171 181 190 203 209 204 202 204 203 204 208 215 214 211 208 210 207 208 204 213 209 191 194 208 212 207 210 215 216 207 205 219
3 1 358 18 58 98 159 174 179 174 169 178 179 198 215 218 209 211 210 210 213 208 216 214 213 204 205 206 209 206 198 186 173 186 205 222 227 234 234 227 229 228 231
5 358 353 7 36 163 176 180 183 184 185 196 200 215 242 245 227 208 206 216 224 220 221 214 205 198 195 193 195 195 190 177 176 190 205 224 230 225 182 126 356 331 312
5 355 353 7 23 68 165 187 188 192 193 198 207 224 237 239 224 199 204 211 213 216 219 201 188 183 182 180 175 179 185 188 187 194 196 202 194 184 196 200 213 216 290
7 0 357 4 9 21 36 28 209 221 212 206 213 210 213 241 248 245 224 204 198 198 173 160 171 172 176 175 178 181 179 176 194 189 180 186 201 216 230 215 210 224 244
5 360 354 354 1 10 24 26 28 27 34 330 259 247 263 256 268 254 243 219 196 181 171 182 191 193 196 196 195 197 197 192 192 185 185 193 206 212 221 232 236 235 248
1 352 348 351 356 356 356 9 12 19 23 359 311 288 271 278 266 253 242 218 195 176 179 190 200 202 203 198 195 197 208 198 181 180 189 194 203 212 218 227 231 241 249
0 355 355 354 352 350 347 344 348 357 343 340 337 322 321 318 305 270 225 183 191 191 193 194 198 198 198 196 195 195 192 184 184 191 193 194 199 210 222 233 236 238 246
356 356 358 356 356 356 355 355 359 0 355 344 354 351 349 352 1 346 182 186 193 204 201 197 197 199 201 201 199 194 192 197 197 196 200 202 209 216 226 234 241 254 255
357 356 353 355 360 3 4 359 356 359 355 350 352 346 340 353 358 337 301 267 215 209 206 205 205 200 198 197 193 190 193 197 199 204 208 211 216 222 228 233 236 245 251
351 354 354 355 359 358 1 357 350 350 347 349 348 341 343 347 293 274 278 282 266 245 233 223 211 201 197 194 195 193 196 203 205 205 206 214 219 227 234 235 236 242 252
352 351 352 350 350 354 354 349 344 344 346 347 348 347 344 351 335 326 309 303 296 273 246 215 211 207 207 198 196 198 203 208 210 209 210 215 219 227 234 236 240 247 253
350 350 350 349 348 347 350 353 353 347 344 343 341 343 345 344 341 337 332 330 335 325 296 197 202 205 205 213 210 203 208 212 215 211 211 216 225 229 231 236 239 246 252
349 348 348 348 348 350 349 349 349 344 340 338 337 337 340 344 342 337 337 341 344 341 328 271 209 198 205 230 237 230 227 223 220 219 207 211 226 233 232 234 238 241 247
349 350 349 347 345 344 344 344 345 345 343 339 337 339 343 344 338 331 335 341 352 349 343 326 290 242 226 233 240 237 232 228 227 220 212 212 223 225 228 231 235 239 247
347 345 344 343 343 341 340 340 342 345 342 337 339 343 342 337 332 329 334 339 338 334 332 325 316 295 265 251 241 236 234 235 234 230 225 217 220 221 222 229 232 238 243
Height
1450 1453 1456 1458 1460 1462 1465 1467 1469 1471 1473 1475 1476 1478 1480 1482 1484 1486 1488 1491 1493 1495 1497 1499 1501 1503 1505 1507 1508 1510 1511 1512 1511 1512 1513 1514 1514 1514 1513 1514 1514 1515 1515
1448 1450 1453 1455 1457 1458 1461 1463 1465 1466 1468 1470 1472 1474 1475 1477 1479 1481 1483 1485 1487 1490 1492 1494 1496 1498 1500 1501 1503 1505 1506 1507 1508 1507 1508 1509 1509 1509 1509 1509 1509 1510 1510
1445 1447 1449 1451 1453 1455 1457 1459 1461 1462 1464 1465 1467 1469 1471 1473 1475 1477 1478 1480 1482 1485 1487 1489 1491 1493 1494 1496 1498 1499 1501 1502 1503 1503 1503 1504 1504 1504 1504 1504 1505 1505 1505
1442 1444 1446 1448 1450 1452 1453 1455 1457 1458 1460 1461 1463 1465 1466 1468 1470 1472 1474 1476 1478 1480 1482 1484 1486 1488 1489 1491 1493 1494 1496 1497 1498 1498 1499 1499 1499 1499 1499 1500 1500 1500 1500
1439 1440 1442 1444 1446 1448 1450 1451 1453 1455 1456 1457 1459 1461 1462 1464 1466 1468 1470 1472 1474 1476 1478 1479 1481 1483 1485 1486 1488 1489 1491 1492 1493 1493 1494 1494 1494 1494 1495 1495 1495 1495 1495
1437 1438 1440 1441 1443 1445 1447 1448 1449 1451 1452 1454 1455 1457 1458 1460 1462 1464 1466 1468 1470 1471 1473 1474 1476 1478 1480 1482 1483 1485 1486 1487 1488 1488 1488 1489 1489 1490 1490 1491 1490 1490 1489
1435 1436 1437 1438 1440 1442 1443 1444 1446 1447 1449 1450 1451 1453 1454 1456 1458 1460 1462 1464 1465 1466 1468 1469 1471 1473 1475 1477 1478 1480 1481 1482 1483 1484 1484 1484 1485 1485 1486 1486 1486 1486 1485
1433 1434 1435 1436 1437 1438 1440 1441 1442 1444 1445 1446 1448 1449 1450 1452 1454 1455 1457 1459 1461 1462 1463 1465 1466 1468 1470 1471 1473 1474 1475 1476 1477 1478 1479 1480 1481 1481 1481 1482 1481 1481 1480
1430 1431 1432 1433 1434 1435 1436 1437 1439 1440 1442 1443 1444 1445 1447 1448 1450 1452 1454 1455 1456 1457 1459 1460 1461 1463 1465 1467 1468 1469 1470 1471 1472 1473 1474 1474 1475 1476 1476 1476 1476 1475 1474
1428 1429 1430 1431 1431 1432 1433 1434 1436 1437 1438 1440 1441 1442 1443 1444 1446 1448 1449 1450 1451 1452 1454 1455 1457 1458 1460 1461 1462 1463 1464 1465 1467 1467 1468 1469 1470 1470 1471 1471 1471 1471 1469
1426 1427 1427 1428 1428 1429 1430 1431 1433 1434 1435 1436 1437 1438 1439 1441 1442 1443 1445 1446 1446 1447 1449 1450 1451 1453 1455 1456 1457 1458 1459 1461 1461 1462 1463 1464 1464 1465 1465 1466 1466 1466 1465
1424 1424 1424 1425 1426 1426 1427 1428 1429 1431 1431 1432 1433 1434 1436 1437 1438 1439 1440 1442 1443 1443 1444 1445 1447 1448 1450 1451 1452 1453 1455 1456 1457 1457 1458 1458 1459 1459 1460 1460 1461 1461 1460
1421 1422 1422 1422 1423 1424 1424 1425 1426 1427 1428 1429 1430 1431 1432 1433 1434 1435 1436 1437 1439 1440 1440 1441 1442 1444 1445 1446 1447 1449 1450 1451 1452 1452 1453 1453 1454 1455 1455 1456 1456 1456 1456
1420 1420 1420 1420 1420 1421 1422 1422 1423 1424 1425 1426 1427 1427 1428 1429 1430 1431 1432 1433 1435 1436 1436 1437 1439 1440 1441 1442 1443 1444 1446 1447 1447 1448 1448 1449 1450 1450 1450 1451 1451 1451 1451
1418 1418 1418 1418 1418 1418 1419 1420 1420 1421 1422 1423 1424 1425 1425 1426 1427 1428 1429 1429 1430 1431 1433 1434 1435 1436 1437 1438 1439 1440 1442 1443 1444 1444 1444 1445 1445 1446 1446 1447 1447 1447 1446
1416 1416 1416 1416 1416 1416 1416 1417 1417 1419 1420 1421 1422 1422 1423 1423 1424 1425 1425 1426 1427 1428 1429 1430 1431 1432 1433 1434 1435 1437 1438 1438 1439 1440 1440 1440 1441 1441 1442 1442 1443 1442 1442
1416 1415 1415 1414 1414 1414 1414 1414 1415 1416 1417 1418 1418 1419 1420 1420 1421 1421 1422 1422 1423 1424 1425 1425 1426 1428 1429 1430 1432 1433 1433 1434 1435 1436 1436 1436 1437 1437 1438 1438 1438 1438 1438
1414 1414 1413 1413 1413 1413 1413 1413 1413 1413 1413 1414 1415 1416 1416 1417 1417 1418 1418 1419 1419 1420 1421 1421 1423 1424 1425 1426 1428 1429 1430 1430 1431 1432 1432 1432 1433 1433 1433 1434 1434 1434 1434
1414 1413 1412 1412 1411 1411 1412 1412 1412 1412 1411 1412 1412 1413 1413 1414 1414 1415 1415 1416 1416 1416 1417 1418 1419 1420 1421 1422 1424 1425 1425 1426 1427 1428 1428 1429 1429 1429 1430 1430 1430 1430 1430
1413 1412 1411 1411 1410 1410 1410 1410 1410 1410 1410 1410 1410 1410 1411 1411 1411 1411 1412 1412 1413 1413 1414 1414 1415 1416 1417 1418 1419 1420 1421 1422 1423 1424 1424 1425 1425 1426 1426 1426 1427 1427 1426
1412 1411 1411 1410 1410 1409 1409 1409 1409 1408 1408 1408 1409 1409 1409 1409 1408 1409 1409 1409 1409 1410 1410 1411 1411 1412 1413 1414 1415 1416 1417 1418 1419 1420 1420 1421 1422 1422 1423 1423 1423 1423 1422
1412 1411 1410 1409 1409 1408 1408 1408 1408 1407 1407 1407 1407 1407 1407 1406 1406 1406 1406 1406 1406 1406 1407 1408 1408 1409 1410 1411 1412 1413 1413 1414 1415 1416 1417 1418 1418 1419 1419 1419 1419 1419 1419
1412 1410 1409 1409 1408 1407 1407 1407 1406 1406 1406 1405 1405 1405 1404 1404 1404 1404 1404 1404 1404 1404 1404 1405 1405 1406 1407 1408 1408 1409 1410 1410 1411 1412 1413 1414 1414 1415 1415 1415 1415 1415 1415
1410 1409 1408 1407 1407 1406 1405 1405 1405 1404 1404 1404 1403 1403 1402 1402 1402 1401 1401 1401 1401 1401 1402 1402 1402 1403 1404 1404 1405 1405 1406 1406 1407 1408 1409 1410 1410 1411 1411 1411 1411 1411 1411
1409 1408 1407 1406 1405 1405 1404 1403 1403 1403 1402 1402 1402 1401 1400 1400 1399 1399 1399 1399 1399 1399 1399 1399 1400 1400 1400 1401 1401 1401 1402 1403 1403 1404 1405 1406 1406 1407 1407 1407 1407 1407 1407
1408 1407 1406 1405 1404 1403 1403 1402 1401 1401 1400 1400 1400 1399 1399 1398 1398 1397 1397 1397 1396 1396 1396 1396 1397 1397 1397 1397 1398 1398 1399 1399 1400 1401 1401 1402 1403 1403 1403 1403 1404 1404 1403